St. Joseph, KS

10:25 PM CDT on September 18, 2019 (GMT -0500)
Rosecrans Memorial

Weather History for KSTJ - July, 2019

Change the Weather History Date:

Monday, July 15, 2019

  Actual Average Record
Temperature  
Mean Temperature 79 °F 77 °F  
Max Temperature 87 °F 87 °F 108 °F (1934)
Min Temperature 70 °F 67 °F 49 °F (1967)
Degree Days  
Heating Degree Days 0 0  
Month to date heating degree days 0 0  
Since 1 June heating degree days 1 8  
Since 1 July heating degree days 0 0  
Cooling Degree Days 14 12  
Month to date cooling degree days 222 178  
Year to date cooling degree days 616 558  
Since 1 June cooling degree days 515 445  
Growing Degree Days 28 (Base 50)    
Moisture  
Dew Point 68 °F    
Average Humidity 73    
Maximum Humidity 90    
Minimum Humidity 55    
Precipitation  
Precipitation 0.00 in 0.19 in 1.57 in (1958)
Month to date precipitation 0.22 2.34  
Year to date precipitation 21.49 19.47  
Sea Level Pressure  
Sea Level Pressure 29.94 in    
Wind  
Wind Speed 7 mph (SSE)    
Max Wind Speed 16 mph    
Max Gust Speed 23 mph    
Visibility 9 miles    
Events      
T = Trace of Precipitation, MM = Missing Value Source: NWS Daily Summary

Daily Weather History Graph

Daily Weather History Graph

Search for Another Location

Airport or City:

Astronomy

Jul. 15, 2019 Rise Set
Actual Time 6:03 AM CDT 8:46 PM CDT
Civil Twilight 5:32 AM CDT 9:18 PM CDT
Nautical Twilight 4:52 AM CDT 9:58 PM CDT
Astronomical Twilight 4:07 AM CDT 10:42 PM CDT
Moon 8:05 PM CDT (7/15) 4:52 AM CDT (7/15)
Length of Visible Light 15h 46m
Length of Day
14h 42m
Waxing Gibbous, 99% of the Moon is Illuminated
Jul 15
Waxing Gibbous
Jul 16
Full
Jul 24
Last Quarter
Jul 31
New
Aug 7
First Quarter

Hourly Weather History & Observations

Time (CDT) Temp. Heat Index Dew Point Humidity Pressure Visibility Wind Dir Wind Speed Gust Speed Precip Events Conditions
12:53 AM 78.1 °F - 70.0 °F 76% 30.00 in 10.0 mi SSE 8.1 mph - N/A   Clear
1:53 AM 77.0 °F - 69.1 °F 76% 29.99 in 10.0 mi SSE 8.1 mph - N/A   Clear
2:53 AM 73.9 °F - 69.1 °F 85% 29.98 in 10.0 mi South 5.8 mph - N/A   Clear
3:53 AM 73.9 °F - 68.0 °F 82% 29.98 in 10.0 mi SSE 8.1 mph - N/A   Clear
4:53 AM 72.0 °F - 66.9 °F 84% 29.99 in 10.0 mi South 8.1 mph - N/A   Clear
5:53 AM 70.0 °F - 66.0 °F 87% 30.00 in 9.0 mi South 4.6 mph - N/A   Clear
6:53 AM 71.1 °F - 66.0 °F 84% 30.01 in 8.0 mi SE 3.5 mph - N/A   Clear
7:53 AM 73.9 °F - 66.0 °F 76% 30.01 in 9.0 mi SSE 4.6 mph - N/A   Clear
8:53 AM 75.9 °F - 66.0 °F 71% 30.00 in 10.0 mi South 11.5 mph - N/A   Clear
9:53 AM 78.1 °F - 66.0 °F 66% 29.98 in 10.0 mi SSE 13.8 mph - N/A   Clear
10:53 AM 80.1 °F 82.1 °F 66.0 °F 62% 29.97 in 9.0 mi SSE 6.9 mph - N/A   Clear
11:53 AM 82.0 °F 84.5 °F 66.9 °F 60% 29.96 in 9.0 mi North - - N/A   Clear
12:53 PM 84.0 °F 87.0 °F 68.0 °F 58% 29.94 in 8.0 mi ESE 10.4 mph - N/A   Clear
1:53 PM 84.9 °F 88.2 °F 68.0 °F 57% 29.92 in 9.0 mi SE 8.1 mph 19.6 mph N/A   Clear
2:53 PM 84.9 °F 87.6 °F 66.9 °F 55% 29.91 in 10.0 mi ESE 11.5 mph - N/A   Scattered Clouds
3:53 PM 86.0 °F 89.4 °F 68.0 °F 55% 29.91 in 10.0 mi ESE 11.5 mph 19.6 mph N/A   Mostly Cloudy
4:53 PM 84.9 °F 87.6 °F 66.9 °F 55% 29.90 in 10.0 mi ESE 13.8 mph - N/A   Mostly Cloudy
5:53 PM 82.9 °F 85.4 °F 66.9 °F 58% 29.88 in 10.0 mi SSE 6.9 mph - N/A   Mostly Cloudy
6:53 PM 82.9 °F 85.8 °F 68.0 °F 60% 29.86 in 10.0 mi SE 6.9 mph - N/A   Partly Cloudy
7:53 PM 82.0 °F 84.9 °F 68.0 °F 62% 29.87 in 10.0 mi SSE 5.8 mph - N/A   Clear
8:53 PM 78.1 °F - 68.0 °F 71% 29.87 in 10.0 mi SSE 4.6 mph - N/A   Clear
9:53 PM 75.9 °F - 69.1 °F 79% 29.89 in 9.0 mi NNW 3.5 mph - N/A   Clear
10:53 PM 73.0 °F - 69.1 °F 87% 29.90 in 7.0 mi Calm Calm - N/A   Clear
11:53 PM 73.9 °F - 68.0 °F 82% 29.89 in 8.0 mi SE 4.6 mph - N/A   Clear